Total_Precipitation_Accumulation
1.92 2.00 1.70 1.60 1.56 1.74 1.98 1.95 1.83 1.91 2.02 2.03 1.88 1.79 1.60 1.32 1.19 1.15 1.25 1.55 1.56 1.56 1.75 1.78 1.73 1.64 1.49 1.30 1.17 1.07 1.01 0.93 0.81 0.65 0.58 0.48 0.38 0.31 0.20 0.13 0.10 0.09 0.07
1.83 1.70 1.68 1.66 1.57 1.71 1.76 1.82 1.87 2.05 2.11 2.19 1.92 1.79 1.65 1.51 1.39 1.35 1.29 1.53 1.54 1.46 1.58 1.82 1.88 1.88 1.86 1.67 1.47 1.34 1.21 1.12 0.93 0.70 0.61 0.55 0.46 0.38 0.31 0.25 0.22 0.16 0.10
1.73 1.71 1.63 1.50 1.54 1.64 1.74 1.78 1.80 1.89 1.79 1.84 1.78 1.75 1.70 1.59 1.52 1.42 1.33 1.29 1.18 1.34 1.51 1.68 1.80 1.85 1.96 1.90 1.83 1.72 1.48 1.26 1.05 0.79 0.60 0.56 0.51 0.42 0.37 0.33 0.31 0.26 0.20
1.46 1.49 1.35 1.34 1.44 1.34 1.36 1.41 1.39 1.41 1.44 1.57 1.56 1.45 1.46 1.47 1.42 1.41 1.31 1.17 1.14 0.98 1.27 1.61 1.72 1.63 1.79 1.99 2.15 2.16 1.77 1.35 1.10 0.90 0.70 0.57 0.54 0.44 0.34 0.28 0.26 0.29 0.23
0.93 0.97 0.93 0.96 1.00 1.00 1.01 0.97 1.13 1.19 1.25 1.35 1.38 1.23 1.18 1.28 1.28 1.28 1.23 1.04 1.11 1.03 1.02 1.22 1.45 1.44 1.68 2.03 2.33 2.41 2.16 1.67 1.26 1.10 0.95 0.81 0.74 0.58 0.40 0.32 0.27 0.24 0.20
0.74 0.71 0.68 0.69 0.66 0.69 0.75 0.79 0.84 0.91 0.93 0.97 0.97 0.94 0.97 0.92 1.01 1.03 0.94 0.96 0.92 0.79 0.80 0.97 1.25 1.13 1.44 1.80 2.07 2.22 2.30 2.17 1.77 1.43 1.24 1.17 1.11 0.87 0.54 0.41 0.34 0.29 0.22
0.56 0.58 0.51 0.50 0.48 0.49 0.49 0.52 0.59 0.64 0.65 0.72 0.78 0.76 0.70 0.64 0.69 0.68 0.70 0.78 0.75 0.75 0.82 0.92 1.05 1.09 1.06 1.21 1.38 1.69 2.12 2.30 2.14 1.78 1.51 1.33 1.29 1.10 0.73 0.54 0.43 0.40 0.36
0.41 0.39 0.38 0.38 0.37 0.37 0.39 0.42 0.46 0.46 0.46 0.55 0.63 0.67 0.59 0.54 0.50 0.44 0.53 0.51 0.54 0.73 0.80 0.79 0.87 1.03 1.02 1.18 0.98 1.14 1.64 2.06 2.33 2.21 1.90 1.57 1.37 1.17 0.92 0.75 0.58 0.48 0.43
0.29 0.29 0.28 0.28 0.32 0.34 0.37 0.40 0.39 0.39 0.38 0.39 0.47 0.61 0.58 0.51 0.43 0.39 0.42 0.45 0.53 0.62 0.67 0.80 0.81 0.81 0.84 1.03 1.17 1.14 1.25 1.45 2.00 2.42 2.37 1.91 1.44 1.12 1.00 0.97 0.86 0.71 0.56
0.23 0.21 0.20 0.20 0.21 0.27 0.35 0.33 0.37 0.37 0.35 0.29 0.32 0.41 0.46 0.49 0.50 0.44 0.41 0.42 0.50 0.56 0.59 0.62 0.66 0.76 0.89 1.01 1.11 1.11 0.96 1.04 1.45 1.97 2.27 2.13 1.70 1.31 1.07 1.07 1.23 1.17 0.90
0.26 0.23 0.22 0.20 0.18 0.19 0.24 0.26 0.34 0.38 0.38 0.32 0.31 0.34 0.37 0.39 0.42 0.43 0.35 0.33 0.39 0.38 0.42 0.48 0.61 0.67 0.78 0.98 1.19 1.06 0.86 0.81 0.98 1.34 1.66 1.81 1.77 1.51 1.24 1.17 1.44 1.61 1.41
0.30 0.24 0.23 0.22 0.21 0.20 0.19 0.18 0.23 0.30 0.37 0.38 0.33 0.31 0.38 0.40 0.40 0.42 0.31 0.25 0.29 0.25 0.29 0.33 0.45 0.59 0.73 0.89 0.91 0.91 0.92 0.86 0.86 0.95 1.11 1.30 1.47 1.47 1.39 1.43 1.62 1.82 1.86
0.28 0.24 0.22 0.22 0.22 0.23 0.22 0.20 0.19 0.22 0.29 0.34 0.33 0.33 0.34 0.34 0.40 0.42 0.33 0.27 0.31 0.31 0.42 0.41 0.46 0.65 0.71 0.92 0.90 0.91 0.90 0.86 0.76 0.70 0.75 0.85 0.97 1.15 1.32 1.41 1.58 1.76 1.93
0.34 0.30 0.23 0.20 0.20 0.20 0.21 0.21 0.19 0.21 0.24 0.28 0.29 0.39 0.38 0.30 0.36 0.39 0.40 0.46 0.45 0.47 0.53 0.51 0.60 0.83 1.05 1.08 1.07 0.95 0.77 0.75 0.65 0.61 0.56 0.58 0.65 0.76 0.87 1.00 1.14 1.26 1.38
0.35 0.32 0.26 0.21 0.20 0.20 0.21 0.22 0.21 0.23 0.25 0.28 0.33 0.42 0.44 0.41 0.41 0.42 0.46 0.57 0.64 0.56 0.56 0.65 0.77 0.86 0.96 0.97 0.97 0.85 0.69 0.68 0.62 0.55 0.50 0.47 0.48 0.53 0.60 0.65 0.69 0.76 0.84
0.31 0.29 0.25 0.22 0.21 0.21 0.22 0.23 0.23 0.26 0.29 0.34 0.41 0.47 0.53 0.53 0.53 0.53 0.54 0.62 0.75 0.73 0.68 0.68 0.76 0.77 0.77 0.63 0.66 0.66 0.62 0.64 0.57 0.51 0.49 0.46 0.43 0.44 0.46 0.51 0.55 0.57 0.60
0.33 0.29 0.27 0.24 0.23 0.22 0.24 0.27 0.26 0.25 0.28 0.34 0.40 0.46 0.51 0.58 0.64 0.67 0.71 0.72 0.75 0.86 0.80 0.68 0.78 0.86 0.79 0.62 0.53 0.54 0.55 0.55 0.53 0.52 0.49 0.48 0.46 0.44 0.43 0.42 0.46 0.49 0.48
0.33 0.31 0.30 0.26 0.21 0.19 0.25 0.29 0.29 0.27 0.29 0.33 0.41 0.51 0.53 0.55 0.62 0.70 0.80 0.82 0.84 0.97 0.95 0.80 0.86 0.95 0.87 0.76 0.64 0.56 0.46 0.44 0.45 0.51 0.51 0.51 0.49 0.46 0.44 0.41 0.39 0.38 0.37
0.35 0.32 0.32 0.30 0.26 0.23 0.23 0.26 0.30 0.32 0.37 0.41 0.46 0.53 0.59 0.65 0.68 0.73 0.81 0.83 0.89 1.04 1.09 0.99 0.97 1.09 1.12 0.91 0.71 0.55 0.45 0.46 0.41 0.45 0.49 0.50 0.49 0.46 0.42 0.41 0.41 0.37 0.33
0.34 0.37 0.40 0.41 0.38 0.32 0.29 0.29 0.31 0.33 0.39 0.45 0.54 0.55 0.59 0.68 0.76 0.81 0.88 0.98 1.05 1.13 1.21 1.18 1.18 1.29 1.29 1.16 0.93 0.66 0.56 0.54 0.49 0.43 0.47 0.48 0.47 0.43 0.39 0.35 0.34 0.34 0.34
0.46 0.57 0.60 0.57 0.51 0.44 0.34 0.34 0.37 0.35 0.42 0.44 0.48 0.53 0.54 0.58 0.66 0.77 0.83 0.94 1.10 1.25 1.41 1.46 1.45 1.60 1.56 1.39 1.13 0.83 0.69 0.62 0.57 0.52 0.49 0.42 0.40 0.37 0.35 0.35 0.34 0.34 0.32
0.72 0.77 0.72 0.69 0.67 0.52 0.45 0.41 0.38 0.38 0.41 0.43 0.47 0.53 0.53 0.50 0.50 0.56 0.65 0.78 0.91 1.08 1.28 1.47 1.59 1.69 1.75 1.62 1.42 1.16 0.84 0.64 0.57 0.57 0.58 0.52 0.46 0.43 0.38 0.35 0.38 0.36 0.34
0.80 0.82 0.79 0.76 0.72 0.68 0.55 0.41 0.35 0.35 0.38 0.43 0.47 0.49 0.43 0.37 0.43 0.46 0.51 0.57 0.65 0.75 0.89 1.11 1.30 1.40 1.59 1.72 1.59 1.29 1.02 0.81 0.65 0.62 0.64 0.54 0.51 0.50 0.44 0.40 0.45 0.38 0.34
0.98 0.95 0.88 0.85 0.83 0.77 0.64 0.49 0.44 0.39 0.39 0.41 0.44 0.46 0.44 0.40 0.41 0.47 0.52 0.51 0.51 0.53 0.61 0.71 0.85 1.08 1.29 1.52 1.58 1.46 1.35 1.10 0.84 0.68 0.65 0.57 0.48 0.45 0.45 0.43 0.45 0.41 0.37
1.06 1.02 1.00 0.98 0.95 0.89 0.75 0.55 0.47 0.44 0.48 0.47 0.47 0.49 0.53 0.47 0.42 0.38 0.45 0.46 0.45 0.44 0.44 0.51 0.62 0.82 1.07 1.24 1.43 1.42 1.32 1.18 0.95 0.70 0.59 0.54 0.45 0.42 0.41 0.37 0.38 0.40 0.38
0.94 0.92 0.93 0.96 0.98 0.96 0.84 0.60 0.51 0.47 0.52 0.54 0.59 0.59 0.55 0.45 0.41 0.32 0.37 0.42 0.40 0.39 0.44 0.45 0.50 0.59 0.71 0.96 1.17 1.21 1.13 1.07 0.94 0.73 0.54 0.49 0.42 0.42 0.42 0.32 0.27 0.28 0.31